Time,TemperatureF,DewpointF,PressureIn,WindDirection,WindDirectionDegrees,WindSpeedMPH,WindSpeedGustMPH,Humidity,HourlyPrecipIn,Conditions,Clouds,dailyrainin,SoftwareType,DateUTC
2013-11-30 00:12:00,13.0,7.0,30.66,WSW,246,0.0,2.0,75,0.00,,,0.00,,2013-11-30 05:12:00,
2013-11-30 00:22:00,12.0,6.0,30.79,WSW,247,0.0,1.0,75,0.00,,,0.00,,2013-11-30 05:22:00,
2013-11-30 00:43:00,12.0,6.0,30.66,WSW,247,0.0,2.0,76,0.00,,,0.00,,2013-11-30 05:43:00,
2013-11-30 00:53:00,12.0,6.0,30.66,West,270,0.0,1.0,76,0.00,,,0.00,,2013-11-30 05:53:00,
2013-11-30 01:12:00,13.0,7.0,30.66,WSW,255,0.0,1.0,75,0.00,,,0.00,,2013-11-30 06:12:00,
2013-11-30 01:22:00,11.0,5.0,30.66,WSW,254,0.0,0.0,77,0.00,,,0.00,,2013-11-30 06:22:00,
2013-11-30 01:42:00,12.0,6.0,30.66,WSW,255,0.0,1.0,77,0.00,,,0.00,,2013-11-30 06:42:00,
2013-11-30 01:52:00,11.0,6.0,30.66,WSW,251,0.0,0.0,79,0.00,,,0.00,,2013-11-30 06:52:00,
2013-11-30 02:12:00,10.0,5.0,30.66,WSW,246,0.0,0.0,81,0.00,,,0.00,,2013-11-30 07:12:00,
2013-11-30 02:22:00,11.0,6.0,30.67,WSW,245,0.0,1.0,81,0.00,,,0.00,,2013-11-30 07:22:00,
2013-11-30 02:42:00,11.0,6.0,30.67,NNW,328,0.0,2.0,81,0.00,,,0.00,,2013-11-30 07:42:00,
2013-11-30 02:52:00,11.0,6.0,30.67,West,270,0.0,2.0,81,0.00,,,0.00,,2013-11-30 07:52:00,
2013-11-30 03:11:00,10.0,5.0,30.66,WSW,253,0.0,1.0,81,0.00,,,0.00,,2013-11-30 08:11:00,
2013-11-30 03:22:00,10.0,6.0,30.67,WSW,239,0.0,1.0,83,0.00,,,0.00,,2013-11-30 08:22:00,
2013-11-30 03:42:00,10.0,5.0,30.81,West,259,0.0,1.0,81,0.00,,,0.00,,2013-11-30 08:42:00,
2013-11-30 03:52:00,10.0,5.0,30.68,WSW,258,0.0,0.0,81,0.00,,,0.00,,2013-11-30 08:52:00,
2013-11-30 04:11:00,10.0,6.0,30.68,West,260,0.0,0.0,82,0.00,,,0.00,,2013-11-30 09:11:00,
2013-11-30 04:22:00,10.0,5.0,30.67,West,259,0.0,1.0,81,0.00,,,0.00,,2013-11-30 09:22:00,
2013-11-30 04:43:00,11.0,6.0,30.67,WSW,256,0.0,1.0,79,0.00,,,0.00,,2013-11-30 09:43:00,
2013-11-30 04:54:00,10.0,5.0,30.67,NW,318,0.0,1.0,79,0.00,,,0.00,,2013-11-30 09:54:00,
2013-11-30 05:13:00,10.0,5.0,30.67,SSE,158,0.0,1.0,79,0.00,,,0.00,,2013-11-30 10:13:00,
2013-11-30 05:23:00,10.0,5.0,30.68,SW,221,0.0,1.0,80,0.00,,,0.00,,2013-11-30 10:23:00,
2013-11-30 05:42:00,10.0,5.0,30.68,WSW,245,0.0,2.0,81,0.00,,,0.00,,2013-11-30 10:42:00,
2013-11-30 05:53:00,10.0,5.0,30.68,WSW,251,0.0,1.0,80,0.00,,,0.00,,2013-11-30 10:53:00,
2013-11-30 06:12:00,9.0,5.0,30.68,SW,222,0.0,1.0,82,0.00,,,0.00,,2013-11-30 11:12:00,
2013-11-30 06:22:00,8.0,4.0,30.68,ESE,123,0.0,1.0,84,0.00,,,0.00,,2013-11-30 11:22:00,
2013-11-30 06:42:00,8.0,4.0,30.68,WNW,288,0.0,1.0,84,0.00,,,0.00,,2013-11-30 11:42:00,
2013-11-30 06:53:00,7.0,3.0,30.81,WNW,285,0.0,1.0,84,0.00,,,0.00,,2013-11-30 11:53:00,
2013-11-30 07:11:00,8.0,4.0,30.68,WNW,298,0.0,1.0,84,0.00,,,0.00,,2013-11-30 12:11:00,
2013-11-30 07:22:00,8.0,4.0,30.68,WNW,298,0.0,0.0,83,0.00,,,0.00,,2013-11-30 12:22:00,
2013-11-30 07:42:00,8.0,4.0,30.68,WNW,298,0.0,0.0,83,0.00,,,0.00,,2013-11-30 12:42:00,
2013-11-30 07:52:00,8.0,4.0,30.68,WNW,298,0.0,0.0,84,0.00,,,0.00,,2013-11-30 12:52:00,
2013-11-30 08:11:00,8.0,4.0,30.69,WNW,298,0.0,0.0,83,0.00,,,0.00,,2013-11-30 13:11:00,
2013-11-30 08:22:00,9.0,5.0,30.69,WNW,298,0.0,0.0,83,0.00,,,0.00,,2013-11-30 13:22:00,
2013-11-30 08:42:00,9.0,5.0,30.70,WNW,287,0.0,0.0,82,0.00,,,0.00,,2013-11-30 13:42:00,
2013-11-30 08:52:00,9.0,5.0,30.70,WNW,287,0.0,0.0,85,0.00,,,0.00,,2013-11-30 13:52:00,
2013-11-30 09:12:00,10.0,6.0,30.69,SSE,159,0.0,0.0,85,0.00,,,0.00,,2013-11-30 14:12:00,
2013-11-30 09:22:00,11.0,7.0,30.68,SSE,158,0.0,0.0,84,0.00,,,0.00,,2013-11-30 14:22:00,
2013-11-30 09:42:00,13.0,9.0,30.67,NNW,328,1.0,2.0,85,0.00,,,0.00,,2013-11-30 14:42:00,
2013-11-30 09:53:00,15.0,9.0,30.67,ENE,78,1.0,4.0,75,0.00,,,0.00,,2013-11-30 14:53:00,
2013-11-30 10:11:00,15.0,8.0,30.81,NW,312,0.0,2.0,72,0.00,,,0.00,,2013-11-30 15:11:00,
2013-11-30 10:22:00,17.0,9.0,30.67,South,175,0.0,2.0,70,0.00,,,0.00,,2013-11-30 15:22:00,
2013-11-30 10:43:00,17.0,8.0,30.67,NNW,327,0.0,2.0,68,0.00,,,0.00,,2013-11-30 15:43:00,
2013-11-30 10:54:00,18.0,9.0,30.65,WNW,298,2.0,6.0,66,0.00,,,0.00,,2013-11-30 15:54:00,
2013-11-30 11:13:00,19.0,10.0,30.65,West,272,1.0,7.0,66,0.00,,,0.00,,2013-11-30 16:13:00,
2013-11-30 11:23:00,20.0,9.0,30.64,NW,315,1.0,4.0,63,0.00,,,0.00,,2013-11-30 16:23:00,
2013-11-30 11:43:00,20.0,9.0,30.63,WNW,285,0.0,3.0,61,0.00,,,0.00,,2013-11-30 16:43:00,
2013-11-30 11:53:00,21.0,8.0,30.62,WNW,284,0.0,4.0,56,0.00,,,0.00,,2013-11-30 16:53:00,
2013-11-30 12:11:00,22.0,8.0,30.61,West,261,1.0,5.0,55,0.00,,,0.00,,2013-11-30 17:11:00,
2013-11-30 12:22:00,22.0,8.0,30.60,WNW,295,1.0,4.0,53,0.00,,,0.00,,2013-11-30 17:22:00,
2013-11-30 12:42:00,23.0,8.0,30.59,NE,39,1.0,5.0,53,0.00,,,0.00,,2013-11-30 17:42:00,
2013-11-30 12:53:00,24.0,9.0,30.58,West,267,0.0,2.0,53,0.00,,,0.00,,2013-11-30 17:53:00,
2013-11-30 13:12:00,25.0,10.0,30.58,East,99,0.0,3.0,52,0.00,,,0.00,,2013-11-30 18:12:00,
2013-11-30 13:22:00,26.0,11.0,30.70,WNW,291,0.0,6.0,53,0.00,,,0.00,,2013-11-30 18:22:00,
2013-11-30 13:42:00,27.0,11.0,30.55,West,266,1.0,4.0,50,0.00,,,0.00,,2013-11-30 18:42:00,
2013-11-30 13:52:00,28.0,12.0,30.55,West,275,0.0,2.0,51,0.00,,,0.00,,2013-11-30 18:52:00,
2013-11-30 14:11:00,27.0,12.0,30.54,NW,304,1.0,4.0,52,0.00,,,0.00,,2013-11-30 19:11:00,
2013-11-30 14:21:00,26.0,12.0,30.53,WNW,303,0.0,2.0,55,0.00,,,0.00,,2013-11-30 19:21:00,
2013-11-30 14:42:00,28.0,13.0,30.53,WNW,299,0.0,3.0,53,0.00,,,0.00,,2013-11-30 19:42:00,
2013-11-30 14:52:00,28.0,13.0,30.52,NNW,335,0.0,2.0,53,0.00,,,0.00,,2013-11-30 19:52:00,
2013-11-30 15:11:00,28.0,14.0,30.52,East,87,0.0,2.0,54,0.00,,,0.00,,2013-11-30 20:11:00,
2013-11-30 15:22:00,28.0,14.0,30.52,WNW,296,0.0,2.0,54,0.00,,,0.00,,2013-11-30 20:22:00,
2013-11-30 15:42:00,27.0,13.0,30.52,WNW,283,0.0,1.0,55,0.00,,,0.00,,2013-11-30 20:42:00,
2013-11-30 15:52:00,26.0,13.0,30.52,West,278,0.0,2.0,58,0.00,,,0.00,,2013-11-30 20:52:00,
2013-11-30 16:11:00,25.0,13.0,30.51,NW,308,0.0,1.0,59,0.00,,,0.00,,2013-11-30 21:11:00,
2013-11-30 16:22:00,25.0,13.0,30.50,WNW,300,0.0,1.0,60,0.00,,,0.00,,2013-11-30 21:22:00,
2013-11-30 16:43:00,24.0,13.0,30.63,WNW,294,0.0,2.0,62,0.00,,,0.00,,2013-11-30 21:43:00,
2013-11-30 16:53:00,24.0,13.0,30.49,ENE,57,0.0,3.0,63,0.00,,,0.00,,2013-11-30 21:53:00,
2013-11-30 17:12:00,24.0,14.0,30.49,WNW,299,0.0,2.0,64,0.00,,,0.00,,2013-11-30 22:12:00,
2013-11-30 17:23:00,24.0,14.0,30.49,NNW,348,0.0,2.0,64,0.00,,,0.00,,2013-11-30 22:23:00,
2013-11-30 17:42:00,24.0,14.0,30.49,West,262,0.0,1.0,65,0.00,,,0.00,,2013-11-30 22:42:00,
2013-11-30 17:52:00,23.0,14.0,30.48,West,262,0.0,0.0,67,0.00,,,0.00,,2013-11-30 22:52:00,
2013-11-30 18:12:00,23.0,14.0,30.48,North,355,0.0,1.0,69,0.00,,,0.00,,2013-11-30 23:12:00,
2013-11-30 18:22:00,23.0,14.0,30.48,NNW,330,0.0,1.0,69,0.00,,,0.00,,2013-11-30 23:22:00,
2013-11-30 18:42:00,23.0,14.0,30.47,ESE,119,1.0,2.0,69,0.00,,,0.00,,2013-11-30 23:42:00,
2013-11-30 18:53:00,23.0,15.0,30.47,ESE,118,0.0,1.0,70,0.00,,,0.00,,2013-11-30 23:53:00,
2013-11-30 19:11:00,23.0,15.0,30.46,NNW,344,0.0,1.0,70,0.00,,,0.00,,2013-12-01 00:11:00,
2013-11-30 19:22:00,23.0,15.0,30.46,West,276,0.0,1.0,72,0.00,,,0.00,,2013-12-01 00:22:00,
2013-11-30 19:42:00,22.0,14.0,30.59,NNW,333,0.0,1.0,72,0.00,,,0.00,,2013-12-01 00:42:00,
2013-11-30 19:52:00,23.0,16.0,30.45,NNW,334,0.0,1.0,73,0.00,,,0.00,,2013-12-01 00:52:00,
2013-11-30 20:12:00,23.0,16.0,30.45,WNW,291,0.0,1.0,74,0.00,,,0.00,,2013-12-01 01:12:00,
2013-11-30 20:21:00,23.0,16.0,30.44,NNW,346,0.0,1.0,73,0.00,,,0.00,,2013-12-01 01:21:00,
2013-11-30 20:42:00,23.0,16.0,30.43,SE,128,0.0,3.0,74,0.00,,,0.00,,2013-12-01 01:42:00,
2013-11-30 20:52:00,23.0,16.0,30.42,NW,313,0.0,3.0,73,0.00,,,0.00,,2013-12-01 01:52:00,
2013-11-30 21:11:00,23.0,16.0,30.40,NNE,14,0.0,4.0,73,0.00,,,0.00,,2013-12-01 02:11:00,
2013-11-30 21:22:00,23.0,16.0,30.40,WNW,298,0.0,6.0,74,0.00,,,0.00,,2013-12-01 02:22:00,
2013-11-30 21:42:00,23.0,16.0,30.39,NW,323,0.0,3.0,74,0.00,,,0.00,,2013-12-01 02:42:00,
2013-11-30 21:52:00,23.0,16.0,30.38,NE,45,2.0,5.0,75,0.00,,,0.00,,2013-12-01 02:52:00,
2013-11-30 22:11:00,23.0,16.0,30.38,NNW,329,0.0,4.0,74,0.00,,,0.00,,2013-12-01 03:11:00,
2013-11-30 22:22:00,23.0,16.0,30.38,North,358,0.0,3.0,75,0.00,,,0.00,,2013-12-01 03:22:00,
2013-11-30 22:44:00,23.0,16.0,30.37,NE,47,0.0,2.0,75,0.00,,,0.00,,2013-12-01 03:44:00,
2013-11-30 22:54:00,24.0,16.0,30.49,ENE,59,1.0,3.0,71,0.00,,,0.00,,2013-12-01 03:54:00,
2013-11-30 23:03:00,-999.0,-99.9,30.36,North,350,0.0,1.0,-999,0.00,,,0.00,,2013-12-01 04:03:00,
2013-11-30 23:13:00,24.0,16.0,30.36,North,350,0.0,1.0,70,0.00,,,0.00,,2013-12-01 04:13:00,
2013-11-30 23:23:00,24.0,16.0,30.35,East,91,1.0,2.0,71,0.00,,,0.00,,2013-12-01 04:23:00,
2013-11-30 23:42:00,24.0,16.0,30.34,North,1,0.0,2.0,72,0.00,,,0.00,,2013-12-01 04:42:00,
2013-11-30 23:53:00,24.0,17.0,30.34,North,7,1.0,2.0,73,0.00,,,0.00,,2013-12-01 04:53:00,